Location: Beutels
(47.8767°N, 9.8584°E)
Time: 17:26:19
(UTC+00:00)

Okean-O - Pass Details

Date: 19 May 2025
Orbit: 628 x 631 km, 98.0° (Epoch: 16 June)

Event Time Altitude Azimuth Distance (km) Brightness Sun altitude
Exits shadow 20:03:38 - 169° (S) 2,219 4.9 -9.5°
Reaches altitude 10° 20:04:08 10° 170° (S) 2,008 4.7 -9.6°
Maximum altitude 20:08:31 79° 257° (WSW) 650 2.7 -10.1°
Drops below altitude 10° 20:12:56 10° 344° (NNW) 2,023 6.3 -10.6°
Sets 20:15:09 0° 346° (NNW) 2,936 7.2 -10.9°
